Time,TemperatureF,DewpointF,PressureIn,WindDirection,WindDirectionDegrees,WindSpeedMPH,WindSpeedGustMPH,Humidity,HourlyPrecipIn,Conditions,Clouds,dailyrainin,SoftwareType,DateUTC
2013-01-04 00:00:00,24.9,16.0,30.03,WNW,292,2.3,4.7,65,0.00,,,0.00,Rainwise IP-100,2013-01-04 05:00:00,
2013-01-04 00:01:00,24.9,16.0,30.03,WNW,292,3.7,4.4,65,0.00,,,0.00,Rainwise IP-100,2013-01-04 05:01:00,
2013-01-04 00:06:00,24.7,16.0,30.03,WNW,292,2.3,6.1,66,0.00,,,0.00,Rainwise IP-100,2013-01-04 05:06:00,
2013-01-04 00:11:00,24.2,16.0,30.02,WNW,292,3.0,4.4,68,0.00,,,0.00,Rainwise IP-100,2013-01-04 05:11:00,
2013-01-04 00:16:00,24.1,16.0,30.02,WNW,292,3.0,4.4,68,0.00,,,0.00,Rainwise IP-100,2013-01-04 05:16:00,
2013-01-04 00:21:00,24.1,16.0,30.02,WNW,292,4.4,6.1,69,0.00,,,0.00,Rainwise IP-100,2013-01-04 05:21:00,
2013-01-04 00:26:00,24.2,16.0,30.02,WNW,292,3.7,7.2,69,0.00,,,0.00,Rainwise IP-100,2013-01-04 05:26:00,
2013-01-04 00:31:00,24.3,16.0,30.02,WNW,292,2.6,5.6,69,0.00,,,0.00,Rainwise IP-100,2013-01-04 05:31:00,
2013-01-04 00:36:00,24.4,16.0,30.02,WNW,292,2.8,6.8,69,0.00,,,0.00,Rainwise IP-100,2013-01-04 05:36:00,
2013-01-04 00:42:00,24.3,16.0,30.02,WNW,292,3.0,5.1,69,0.00,,,0.00,Rainwise IP-100,2013-01-04 05:42:00,
2013-01-04 00:47:00,24.2,16.0,30.01,WNW,292,2.8,5.4,70,0.00,,,0.00,Rainwise IP-100,2013-01-04 05:47:00,
2013-01-04 00:52:00,24.1,16.0,30.02,WNW,292,2.6,5.6,70,0.00,,,0.00,Rainwise IP-100,2013-01-04 05:52:00,
2013-01-04 00:57:00,24.0,16.0,30.02,WNW,292,1.4,5.4,71,0.00,,,0.00,Rainwise IP-100,2013-01-04 05:57:00,
2013-01-04 01:02:00,24.0,16.0,30.01,WNW,292,2.6,4.7,72,0.00,,,0.00,Rainwise IP-100,2013-01-04 06:02:00,
2013-01-04 01:06:00,24.0,16.0,30.01,WNW,292,3.3,5.6,72,0.00,,,0.00,Rainwise IP-100,2013-01-04 06:06:00,
2013-01-04 01:11:00,24.3,16.0,30.01,WNW,292,2.3,8.4,72,0.00,,,0.00,Rainwise IP-100,2013-01-04 06:11:00,
2013-01-04 01:17:00,24.8,18.0,30.00,WNW,292,6.5,6.5,72,0.00,,,0.00,Rainwise IP-100,2013-01-04 06:17:00,
2013-01-04 01:22:00,25.0,18.0,30.01,WNW,292,4.7,6.5,71,0.00,,,0.00,Rainwise IP-100,2013-01-04 06:22:00,
2013-01-04 01:27:00,25.0,18.0,30.01,WNW,292,3.5,6.1,71,0.00,,,0.00,Rainwise IP-100,2013-01-04 06:27:00,
2013-01-04 01:32:00,25.1,18.0,30.00,West,270,5.8,5.8,72,0.00,,,0.00,Rainwise IP-100,2013-01-04 06:32:00,
2013-01-04 01:37:00,25.2,18.0,30.00,WNW,292,3.7,6.1,72,0.00,,,0.00,Rainwise IP-100,2013-01-04 06:37:00,
2013-01-04 01:42:00,24.9,18.0,30.01,WNW,292,3.0,4.9,72,0.00,,,0.00,Rainwise IP-100,2013-01-04 06:42:00,
2013-01-04 01:47:00,24.7,18.0,30.00,WNW,292,4.9,6.1,72,0.00,,,0.00,Rainwise IP-100,2013-01-04 06:47:00,
2013-01-04 01:52:00,24.9,18.0,30.00,WNW,292,4.0,5.4,72,0.00,,,0.00,Rainwise IP-100,2013-01-04 06:52:00,
2013-01-04 01:57:00,25.2,18.0,30.00,WNW,292,5.4,6.3,72,0.00,,,0.00,Rainwise IP-100,2013-01-04 06:57:00,
2013-01-04 02:02:00,25.3,18.0,30.00,WNW,292,5.6,7.0,72,0.00,,,0.00,Rainwise IP-100,2013-01-04 07:02:00,
2013-01-04 02:07:00,25.6,18.0,30.00,West,270,5.1,7.9,71,0.00,,,0.00,Rainwise IP-100,2013-01-04 07:07:00,
2013-01-04 02:12:00,25.8,18.0,30.00,WNW,292,6.3,7.9,71,0.00,,,0.00,Rainwise IP-100,2013-01-04 07:12:00,
2013-01-04 02:17:00,26.0,18.0,30.01,WNW,292,5.8,7.9,70,0.00,,,0.00,Rainwise IP-100,2013-01-04 07:17:00,
2013-01-04 02:22:00,26.0,18.0,30.00,WNW,292,3.0,7.9,70,0.00,,,0.00,Rainwise IP-100,2013-01-04 07:22:00,
2013-01-04 02:27:00,25.9,18.0,30.01,WNW,292,2.8,7.2,70,0.00,,,0.00,Rainwise IP-100,2013-01-04 07:27:00,
2013-01-04 02:32:00,26.0,18.0,30.00,WNW,292,4.2,8.6,71,0.00,,,0.00,Rainwise IP-100,2013-01-04 07:32:00,
2013-01-04 02:37:00,26.1,18.0,30.01,WNW,292,5.6,7.9,70,0.00,,,0.00,Rainwise IP-100,2013-01-04 07:37:00,
2013-01-04 02:42:00,26.3,18.0,30.01,WNW,292,5.6,8.6,70,0.00,,,0.00,Rainwise IP-100,2013-01-04 07:42:00,
2013-01-04 02:47:00,26.2,18.0,30.00,WNW,292,3.5,6.8,70,0.00,,,0.00,Rainwise IP-100,2013-01-04 07:47:00,
2013-01-04 02:52:00,26.1,18.0,30.01,WNW,292,4.4,7.7,70,0.00,,,0.00,Rainwise IP-100,2013-01-04 07:52:00,
2013-01-04 02:57:00,26.0,18.0,30.01,WNW,292,3.0,6.5,71,0.00,,,0.00,Rainwise IP-100,2013-01-04 07:57:00,
2013-01-04 03:02:00,25.8,18.0,30.00,WNW,292,3.0,5.6,71,0.00,,,0.00,Rainwise IP-100,2013-01-04 08:02:00,
2013-01-04 03:07:00,25.6,18.0,30.01,WNW,292,1.9,5.1,71,0.00,,,0.00,Rainwise IP-100,2013-01-04 08:07:00,
2013-01-04 03:12:00,25.5,18.0,30.01,WNW,292,3.5,6.1,72,0.00,,,0.00,Rainwise IP-100,2013-01-04 08:12:00,
2013-01-04 03:17:00,25.5,18.0,30.00,WNW,292,4.7,6.1,72,0.00,,,0.00,Rainwise IP-100,2013-01-04 08:17:00,
2013-01-04 03:22:00,25.6,18.0,30.00,WNW,292,3.7,5.6,73,0.00,,,0.00,Rainwise IP-100,2013-01-04 08:22:00,
2013-01-04 03:27:00,25.7,18.0,30.00,WNW,292,4.0,5.1,73,0.00,,,0.00,Rainwise IP-100,2013-01-04 08:27:00,
2013-01-04 03:32:00,25.5,18.0,30.00,WNW,292,4.0,6.3,73,0.00,,,0.00,Rainwise IP-100,2013-01-04 08:32:00,
2013-01-04 03:37:00,25.5,18.0,30.00,WNW,292,3.3,4.9,74,0.00,,,0.00,Rainwise IP-100,2013-01-04 08:37:00,
2013-01-04 03:42:00,25.5,18.0,30.00,WNW,292,2.6,6.3,74,0.00,,,0.00,Rainwise IP-100,2013-01-04 08:42:00,
2013-01-04 03:47:00,25.6,18.0,30.00,WNW,292,2.6,6.5,74,0.00,,,0.00,Rainwise IP-100,2013-01-04 08:47:00,
2013-01-04 03:52:00,25.8,18.0,30.00,West,270,6.5,7.0,74,0.00,,,0.00,Rainwise IP-100,2013-01-04 08:52:00,
2013-01-04 03:55:00,25.9,18.0,30.00,WNW,292,4.9,7.9,73,0.00,,,0.00,Rainwise IP-100,2013-01-04 08:55:00,
2013-01-04 04:00:00,26.1,18.0,29.99,WNW,292,4.7,5.4,73,0.00,,,0.00,Rainwise IP-100,2013-01-04 09:00:00,
2013-01-04 04:02:00,26.1,18.0,29.99,WNW,292,4.4,5.4,73,0.00,,,0.00,Rainwise IP-100,2013-01-04 09:02:00,
2013-01-04 04:07:00,26.2,18.0,29.99,WNW,292,4.2,6.3,73,0.00,,,0.00,Rainwise IP-100,2013-01-04 09:07:00,
2013-01-04 04:12:00,26.3,18.0,30.00,WNW,292,3.0,7.5,73,0.00,,,0.00,Rainwise IP-100,2013-01-04 09:12:00,
2013-01-04 04:17:00,26.2,18.0,30.00,WNW,292,2.3,4.2,73,0.00,,,0.00,Rainwise IP-100,2013-01-04 09:17:00,
2013-01-04 04:22:00,26.2,18.0,30.00,WSW,247,3.5,5.6,73,0.00,,,0.00,Rainwise IP-100,2013-01-04 09:22:00,
2013-01-04 04:27:00,26.3,18.0,30.00,West,270,2.3,4.2,73,0.00,,,0.00,Rainwise IP-100,2013-01-04 09:27:00,
2013-01-04 04:32:00,26.2,18.0,30.00,WSW,247,0.0,4.2,73,0.00,,,0.00,Rainwise IP-100,2013-01-04 09:32:00,
2013-01-04 04:37:00,26.0,18.0,30.00,WNW,292,2.3,4.0,74,0.00,,,0.00,Rainwise IP-100,2013-01-04 09:37:00,
2013-01-04 04:42:00,25.7,18.0,30.00,WNW,292,2.1,3.3,74,0.00,,,0.00,Rainwise IP-100,2013-01-04 09:42:00,
2013-01-04 04:47:00,25.5,21.0,30.00,WNW,292,2.1,2.8,75,0.00,,,0.00,Rainwise IP-100,2013-01-04 09:47:00,
2013-01-04 04:52:00,25.6,21.0,30.00,WNW,292,0.0,2.1,76,0.00,,,0.00,Rainwise IP-100,2013-01-04 09:52:00,
2013-01-04 04:57:00,25.7,21.0,30.00,WNW,292,0.0,2.1,76,0.00,,,0.00,Rainwise IP-100,2013-01-04 09:57:00,
2013-01-04 05:02:00,25.9,21.0,30.00,West,270,1.6,3.3,76,0.00,,,0.00,Rainwise IP-100,2013-01-04 10:02:00,
2013-01-04 05:07:00,26.1,21.0,30.00,West,270,4.7,4.7,76,0.00,,,0.00,Rainwise IP-100,2013-01-04 10:07:00,
2013-01-04 05:12:00,26.4,21.0,30.00,WNW,292,3.3,7.9,76,0.00,,,0.00,Rainwise IP-100,2013-01-04 10:12:00,
2013-01-04 05:17:00,26.8,21.0,30.00,WNW,292,2.3,7.9,76,0.00,,,0.00,Rainwise IP-100,2013-01-04 10:17:00,
2013-01-04 05:22:00,27.0,21.0,30.01,WNW,292,4.9,7.0,76,0.00,,,0.00,Rainwise IP-100,2013-01-04 10:22:00,
2013-01-04 05:27:00,27.3,21.0,30.00,WNW,292,1.4,9.1,75,0.00,,,0.00,Rainwise IP-100,2013-01-04 10:27:00,
2013-01-04 05:32:00,27.6,21.0,30.00,WSW,247,5.1,5.4,75,0.00,,,0.00,Rainwise IP-100,2013-01-04 10:32:00,
2013-01-04 05:37:00,27.9,21.0,30.00,WNW,292,5.1,8.4,75,0.00,,,0.00,Rainwise IP-100,2013-01-04 10:37:00,
2013-01-04 05:42:00,28.2,21.0,30.00,WNW,292,3.5,10.5,75,0.00,,,0.00,Rainwise IP-100,2013-01-04 10:42:00,
2013-01-04 05:47:00,28.4,21.0,30.01,WNW,292,4.7,7.9,74,0.00,,,0.00,Rainwise IP-100,2013-01-04 10:47:00,
2013-01-04 05:52:00,28.5,23.0,30.01,WNW,292,5.6,12.1,74,0.00,,,0.00,Rainwise IP-100,2013-01-04 10:52:00,
2013-01-04 05:57:00,28.6,23.0,30.01,WNW,292,4.7,10.7,74,0.00,,,0.00,Rainwise IP-100,2013-01-04 10:57:00,
2013-01-04 06:02:00,28.6,23.0,30.01,WNW,292,5.8,7.9,74,0.00,,,0.00,Rainwise IP-100,2013-01-04 11:02:00,
2013-01-04 06:07:00,28.6,23.0,30.01,WNW,292,6.3,8.9,73,0.00,,,0.00,Rainwise IP-100,2013-01-04 11:07:00,
2013-01-04 06:12:00,28.7,23.0,30.02,WNW,292,5.8,9.8,73,0.00,,,0.00,Rainwise IP-100,2013-01-04 11:12:00,
2013-01-04 06:17:00,28.7,23.0,30.01,WNW,292,4.7,9.1,73,0.00,,,0.00,Rainwise IP-100,2013-01-04 11:17:00,
2013-01-04 06:22:00,28.7,23.0,30.02,WNW,292,4.7,8.6,73,0.00,,,0.00,Rainwise IP-100,2013-01-04 11:22:00,
2013-01-04 06:27:00,28.8,23.0,30.02,WNW,292,5.4,7.7,73,0.00,,,0.00,Rainwise IP-100,2013-01-04 11:27:00,
2013-01-04 06:32:00,28.9,23.0,30.01,WNW,292,6.5,8.9,73,0.00,,,0.00,Rainwise IP-100,2013-01-04 11:32:00,
2013-01-04 06:37:00,29.0,23.0,30.01,WNW,292,4.7,9.8,73,0.00,,,0.00,Rainwise IP-100,2013-01-04 11:37:00,
2013-01-04 06:42:00,29.0,23.0,30.01,WNW,292,3.5,8.2,73,0.00,,,0.00,Rainwise IP-100,2013-01-04 11:42:00,
2013-01-04 06:47:00,29.0,23.0,30.02,WNW,292,1.9,8.9,73,0.00,,,0.00,Rainwise IP-100,2013-01-04 11:47:00,
2013-01-04 06:52:00,29.0,23.0,30.02,WNW,292,4.7,9.8,73,0.00,,,0.00,Rainwise IP-100,2013-01-04 11:52:00,
2013-01-04 06:57:00,29.2,23.0,30.01,West,270,4.7,10.0,73,0.00,,,0.00,Rainwise IP-100,2013-01-04 11:57:00,
2013-01-04 07:02:00,29.2,23.0,30.01,WNW,292,4.9,8.4,73,0.00,,,0.00,Rainwise IP-100,2013-01-04 12:02:00,
2013-01-04 07:07:00,29.1,23.0,30.02,WNW,292,4.0,7.2,73,0.00,,,0.00,Rainwise IP-100,2013-01-04 12:07:00,
2013-01-04 07:12:00,29.1,23.0,30.02,WNW,292,2.8,6.3,73,0.00,,,0.00,Rainwise IP-100,2013-01-04 12:12:00,
2013-01-04 07:17:00,29.0,23.0,30.02,WNW,292,4.4,7.9,74,0.00,,,0.00,Rainwise IP-100,2013-01-04 12:17:00,
2013-01-04 07:22:00,28.9,23.0,30.02,WNW,292,1.6,6.5,74,0.00,,,0.00,Rainwise IP-100,2013-01-04 12:22:00,
2013-01-04 07:27:00,28.9,23.0,30.02,WNW,292,4.7,7.7,74,0.00,,,0.00,Rainwise IP-100,2013-01-04 12:27:00,
2013-01-04 07:32:00,28.7,23.0,30.02,WNW,292,2.3,5.4,74,0.00,,,0.00,Rainwise IP-100,2013-01-04 12:32:00,
2013-01-04 07:37:00,28.7,23.0,30.02,WNW,292,5.4,9.1,74,0.00,,,0.00,Rainwise IP-100,2013-01-04 12:37:00,
2013-01-04 07:42:00,28.9,23.0,30.02,West,270,3.5,6.5,74,0.00,,,0.00,Rainwise IP-100,2013-01-04 12:42:00,
2013-01-04 07:47:00,29.0,23.0,30.02,WNW,292,5.1,8.4,74,0.00,,,0.00,Rainwise IP-100,2013-01-04 12:47:00,
2013-01-04 07:52:00,29.1,23.0,30.02,WNW,292,4.4,7.5,74,0.00,,,0.00,Rainwise IP-100,2013-01-04 12:52:00,
2013-01-04 07:57:00,29.3,23.0,30.02,WNW,292,2.1,8.6,73,0.00,,,0.00,Rainwise IP-100,2013-01-04 12:57:00,
2013-01-04 08:02:00,29.5,23.0,30.02,WSW,247,6.1,7.9,73,0.00,,,0.00,Rainwise IP-100,2013-01-04 13:02:00,
2013-01-04 08:07:00,29.6,23.0,30.02,West,270,3.3,7.9,73,0.00,,,0.00,Rainwise IP-100,2013-01-04 13:07:00,
2013-01-04 08:12:00,29.8,23.0,30.02,WNW,292,5.8,6.5,72,0.00,,,0.00,Rainwise IP-100,2013-01-04 13:12:00,
2013-01-04 08:17:00,30.1,23.0,30.03,WNW,292,2.3,6.8,72,0.00,,,0.00,Rainwise IP-100,2013-01-04 13:17:00,
2013-01-04 08:22:00,30.4,23.0,30.03,WNW,292,1.9,6.8,71,0.00,,,0.00,Rainwise IP-100,2013-01-04 13:22:00,
2013-01-04 08:27:00,30.7,23.0,30.03,WNW,292,4.4,6.5,71,0.00,,,0.00,Rainwise IP-100,2013-01-04 13:27:00,
2013-01-04 08:32:00,30.9,23.0,30.03,West,270,4.7,6.3,71,0.00,,,0.00,Rainwise IP-100,2013-01-04 13:32:00,
2013-01-04 08:37:00,31.0,23.0,30.03,WSW,247,6.3,7.0,70,0.00,,,0.00,Rainwise IP-100,2013-01-04 13:37:00,
2013-01-04 08:42:00,31.2,23.0,30.03,WSW,247,7.0,9.3,70,0.00,,,0.00,Rainwise IP-100,2013-01-04 13:42:00,
2013-01-04 08:47:00,31.4,23.0,30.03,WNW,292,5.8,9.6,69,0.00,,,0.00,Rainwise IP-100,2013-01-04 13:47:00,
2013-01-04 08:52:00,31.5,23.0,30.03,WNW,292,3.5,8.6,69,0.00,,,0.00,Rainwise IP-100,2013-01-04 13:52:00,
2013-01-04 08:57:00,31.7,23.0,30.03,WNW,292,11.7,11.7,69,0.00,,,0.00,Rainwise IP-100,2013-01-04 13:57:00,
2013-01-04 09:02:00,31.9,23.0,30.02,WNW,292,3.3,12.6,68,0.00,,,0.00,Rainwise IP-100,2013-01-04 14:02:00,
2013-01-04 09:07:00,31.9,23.0,30.02,WNW,292,8.9,10.3,68,0.00,,,0.00,Rainwise IP-100,2013-01-04 14:07:00,
2013-01-04 09:12:00,32.1,23.0,30.03,West,270,5.6,13.3,68,0.00,,,0.00,Rainwise IP-100,2013-01-04 14:12:00,
2013-01-04 09:17:00,32.3,23.0,30.02,NNW,337,2.8,10.5,67,0.00,,,0.00,Rainwise IP-100,2013-01-04 14:17:00,
2013-01-04 09:22:00,32.5,24.0,30.03,WNW,292,4.0,10.3,67,0.00,,,0.00,Rainwise IP-100,2013-01-04 14:22:00,
2013-01-04 09:27:00,32.7,24.0,30.03,WNW,292,8.4,9.8,67,0.00,,,0.00,Rainwise IP-100,2013-01-04 14:27:00,
2013-01-04 09:32:00,32.8,24.0,30.03,WNW,292,11.2,11.9,66,0.00,,,0.00,Rainwise IP-100,2013-01-04 14:32:00,
2013-01-04 09:37:00,32.9,24.0,30.03,WNW,292,6.3,14.0,66,0.00,,,0.00,Rainwise IP-100,2013-01-04 14:37:00,
2013-01-04 09:42:00,32.9,24.0,30.03,NNW,337,4.9,11.2,66,0.00,,,0.00,Rainwise IP-100,2013-01-04 14:42:00,
2013-01-04 09:47:00,33.2,23.0,30.02,NNW,337,4.7,12.6,65,0.00,,,0.00,Rainwise IP-100,2013-01-04 14:47:00,
2013-01-04 09:52:00,33.5,24.0,30.02,West,270,11.4,13.1,65,0.00,,,0.00,Rainwise IP-100,2013-01-04 14:52:00,
2013-01-04 09:57:00,33.7,24.0,30.02,NE,45,3.5,12.8,65,0.00,,,0.00,Rainwise IP-100,2013-01-04 14:57:00,
2013-01-04 10:02:00,33.8,24.0,30.01,WNW,292,6.1,17.7,65,0.00,,,0.00,Rainwise IP-100,2013-01-04 15:02:00,
2013-01-04 10:07:00,34.0,24.0,30.01,West,270,0.0,12.6,64,0.00,,,0.00,Rainwise IP-100,2013-01-04 15:07:00,
2013-01-04 10:12:00,34.2,24.0,30.02,WNW,292,3.7,8.6,64,0.00,,,0.00,Rainwise IP-100,2013-01-04 15:12:00,
2013-01-04 10:17:00,34.5,24.0,30.01,WNW,292,4.2,11.7,63,0.00,,,0.00,Rainwise IP-100,2013-01-04 15:17:00,
2013-01-04 10:22:00,34.8,24.0,30.01,WSW,247,3.5,7.5,63,0.00,,,0.00,Rainwise IP-100,2013-01-04 15:22:00,
2013-01-04 10:27:00,34.9,23.0,30.00,WNW,292,5.6,12.4,61,0.00,,,0.00,Rainwise IP-100,2013-01-04 15:27:00,
2013-01-04 10:32:00,35.0,23.0,30.00,WNW,292,13.5,16.1,60,0.00,,,0.00,Rainwise IP-100,2013-01-04 15:32:00,
2013-01-04 10:37:00,34.9,23.0,30.00,WNW,292,10.0,14.5,60,0.00,,,0.00,Rainwise IP-100,2013-01-04 15:37:00,
2013-01-04 10:42:00,34.8,23.0,30.00,West,270,5.8,14.5,60,0.00,,,0.00,Rainwise IP-100,2013-01-04 15:42:00,
2013-01-04 10:47:00,34.8,23.0,30.00,WSW,247,11.2,18.0,60,0.00,,,0.00,Rainwise IP-100,2013-01-04 15:47:00,
2013-01-04 10:52:00,34.8,23.0,29.99,WNW,292,5.6,15.9,60,0.00,,,0.00,Rainwise IP-100,2013-01-04 15:52:00,
2013-01-04 10:57:00,34.8,23.0,29.99,WNW,292,9.3,15.9,60,0.00,,,0.00,Rainwise IP-100,2013-01-04 15:57:00,
2013-01-04 11:02:00,34.9,23.0,29.99,WNW,292,5.1,13.1,61,0.00,,,0.00,Rainwise IP-100,2013-01-04 16:02:00,
2013-01-04 11:07:00,34.9,23.0,29.98,WSW,247,9.6,13.8,61,0.00,,,0.00,Rainwise IP-100,2013-01-04 16:07:00,
2013-01-04 11:12:00,35.0,23.0,29.98,NNW,337,3.3,13.5,61,0.00,,,0.00,Rainwise IP-100,2013-01-04 16:12:00,
2013-01-04 11:17:00,35.2,23.0,29.97,West,270,12.4,12.8,61,0.00,,,0.00,Rainwise IP-100,2013-01-04 16:17:00,
2013-01-04 11:22:00,35.3,23.0,29.98,SSW,202,4.0,17.5,60,0.00,,,0.00,Rainwise IP-100,2013-01-04 16:22:00,
2013-01-04 11:27:00,35.3,23.0,29.98,WNW,292,6.3,15.4,59,0.00,,,0.00,Rainwise IP-100,2013-01-04 16:27:00,
2013-01-04 11:32:00,35.2,23.0,29.97,WNW,292,4.9,14.9,59,0.00,,,0.00,Rainwise IP-100,2013-01-04 16:32:00,
2013-01-04 11:37:00,35.2,23.0,29.97,West,270,6.3,13.8,60,0.00,,,0.00,Rainwise IP-100,2013-01-04 16:37:00,
2013-01-04 11:42:00,35.3,23.0,29.96,WNW,292,6.3,13.3,60,0.00,,,0.00,Rainwise IP-100,2013-01-04 16:42:00,
2013-01-04 11:47:00,35.5,24.0,29.96,WNW,292,8.2,13.1,60,0.00,,,0.00,Rainwise IP-100,2013-01-04 16:47:00,
2013-01-04 11:52:00,35.4,23.0,29.95,West,270,5.6,17.3,59,0.00,,,0.00,Rainwise IP-100,2013-01-04 16:52:00,
2013-01-04 11:57:00,35.3,23.0,29.95,SSW,202,6.3,16.8,59,0.00,,,0.00,Rainwise IP-100,2013-01-04 16:57:00,
2013-01-04 12:02:00,35.3,23.0,29.95,WNW,292,10.0,15.6,58,0.00,,,0.00,Rainwise IP-100,2013-01-04 17:02:00,
2013-01-04 12:07:00,35.3,23.0,29.95,WSW,247,9.6,19.8,58,0.00,,,0.00,Rainwise IP-100,2013-01-04 17:07:00,
2013-01-04 12:12:00,35.4,23.0,29.95,WNW,292,10.3,14.2,58,0.00,,,0.00,Rainwise IP-100,2013-01-04 17:12:00,
2013-01-04 12:17:00,35.6,23.0,29.94,WNW,292,5.6,14.5,58,0.00,,,0.00,Rainwise IP-100,2013-01-04 17:17:00,
2013-01-04 12:22:00,35.6,23.0,29.94,West,270,7.9,18.0,58,0.00,,,0.00,Rainwise IP-100,2013-01-04 17:22:00,
2013-01-04 12:27:00,35.5,23.0,29.93,WNW,292,4.2,18.9,58,0.00,,,0.00,Rainwise IP-100,2013-01-04 17:27:00,
2013-01-04 12:32:00,35.5,23.0,29.93,WSW,247,3.5,17.0,58,0.00,,,0.00,Rainwise IP-100,2013-01-04 17:32:00,
2013-01-04 12:37:00,35.6,23.0,29.94,WNW,292,8.9,14.7,57,0.00,,,0.00,Rainwise IP-100,2013-01-04 17:37:00,
2013-01-04 12:42:00,35.8,23.0,29.93,WSW,247,13.1,24.0,57,0.00,,,0.00,Rainwise IP-100,2013-01-04 17:42:00,
2013-01-04 12:47:00,35.9,23.0,29.92,WNW,292,7.7,17.3,55,0.00,,,0.00,Rainwise IP-100,2013-01-04 17:47:00,
2013-01-04 12:52:00,36.0,23.0,29.92,WNW,292,8.4,17.3,55,0.00,,,0.00,Rainwise IP-100,2013-01-04 17:52:00,
2013-01-04 12:57:00,36.3,23.0,29.92,WNW,292,11.0,13.5,55,0.00,,,0.00,Rainwise IP-100,2013-01-04 17:57:00,
2013-01-04 13:02:00,36.4,23.0,29.91,WNW,292,0.0,18.0,55,0.00,,,0.00,Rainwise IP-100,2013-01-04 18:02:00,
2013-01-04 13:07:00,36.6,23.0,29.91,WSW,247,2.6,16.8,56,0.00,,,0.00,Rainwise IP-100,2013-01-04 18:07:00,
2013-01-04 13:12:00,36.9,23.0,29.91,WNW,292,4.9,17.5,56,0.00,,,0.00,Rainwise IP-100,2013-01-04 18:12:00,
2013-01-04 13:17:00,36.8,24.0,29.91,NW,315,3.5,12.6,57,0.00,,,0.00,Rainwise IP-100,2013-01-04 18:17:00,
2013-01-04 13:22:00,36.6,24.0,29.90,WNW,292,8.2,15.9,59,0.00,,,0.00,Rainwise IP-100,2013-01-04 18:22:00,
2013-01-04 13:27:00,36.7,24.0,29.90,WNW,292,6.5,22.6,60,0.00,,,0.00,Rainwise IP-100,2013-01-04 18:27:00,
2013-01-04 13:32:00,36.7,24.0,29.90,WNW,292,4.9,14.5,61,0.00,,,0.00,Rainwise IP-100,2013-01-04 18:32:00,
2013-01-04 13:38:00,36.6,26.0,29.89,WNW,292,6.5,14.9,62,0.00,,,0.00,Rainwise IP-100,2013-01-04 18:38:00,
2013-01-04 13:43:00,36.7,26.0,29.89,WNW,292,7.9,14.7,63,0.00,,,0.00,Rainwise IP-100,2013-01-04 18:43:00,
2013-01-04 13:48:00,37.1,26.0,29.89,WSW,247,4.4,14.0,64,0.00,,,0.00,Rainwise IP-100,2013-01-04 18:48:00,
2013-01-04 13:53:00,37.2,26.0,29.89,North,360,7.9,15.6,64,0.00,,,0.00,Rainwise IP-100,2013-01-04 18:53:00,
2013-01-04 13:58:00,37.1,26.0,29.89,WNW,292,5.6,15.6,63,0.00,,,0.00,Rainwise IP-100,2013-01-04 18:58:00,
2013-01-04 14:03:00,37.2,26.0,29.88,WNW,292,18.2,20.5,62,0.00,,,0.00,Rainwise IP-100,2013-01-04 19:03:00,
2013-01-04 14:08:00,37.2,24.0,29.88,WSW,247,13.3,21.7,61,0.00,,,0.00,Rainwise IP-100,2013-01-04 19:08:00,
2013-01-04 14:13:00,37.1,24.0,29.88,WNW,292,10.7,27.3,61,0.00,,,0.00,Rainwise IP-100,2013-01-04 19:13:00,
2013-01-04 14:18:00,36.9,24.0,29.88,WNW,292,22.4,24.5,61,0.00,,,0.00,Rainwise IP-100,2013-01-04 19:18:00,
2013-01-04 14:23:00,36.8,24.0,29.89,WNW,292,15.6,22.4,61,0.00,,,0.00,Rainwise IP-100,2013-01-04 19:23:00,
2013-01-04 14:28:00,36.8,24.0,29.87,WNW,292,7.9,22.6,61,0.00,,,0.00,Rainwise IP-100,2013-01-04 19:28:00,
2013-01-04 14:33:00,36.7,26.0,29.89,WNW,292,11.2,26.6,62,0.00,,,0.00,Rainwise IP-100,2013-01-04 19:33:00,
2013-01-04 14:38:00,36.6,26.0,29.88,ENE,67,9.3,26.8,62,0.00,,,0.00,Rainwise IP-100,2013-01-04 19:38:00,
2013-01-04 14:43:00,36.6,26.0,29.88,West,270,9.8,22.4,62,0.00,,,0.00,Rainwise IP-100,2013-01-04 19:43:00,
2013-01-04 14:48:00,36.5,26.0,29.88,WNW,292,13.1,22.6,64,0.00,,,0.00,Rainwise IP-100,2013-01-04 19:48:00,
2013-01-04 14:53:00,36.5,26.0,29.88,WNW,292,16.1,23.8,65,0.00,,,0.00,Rainwise IP-100,2013-01-04 19:53:00,
2013-01-04 14:59:00,36.5,28.0,29.88,West,270,14.7,20.1,66,0.00,,,0.00,Rainwise IP-100,2013-01-04 19:59:00,
2013-01-04 15:04:00,36.5,28.0,29.88,WSW,247,9.1,21.0,67,0.00,,,0.00,Rainwise IP-100,2013-01-04 20:04:00,
2013-01-04 15:09:00,36.5,28.0,29.88,WSW,247,6.8,17.0,68,0.00,,,0.00,Rainwise IP-100,2013-01-04 20:09:00,
2013-01-04 15:14:00,36.5,28.0,29.89,West,270,15.6,17.7,69,0.00,,,0.00,Rainwise IP-100,2013-01-04 20:14:00,
2013-01-04 15:19:00,36.5,28.0,29.88,West,270,16.8,20.8,69,0.00,,,0.00,Rainwise IP-100,2013-01-04 20:19:00,
2013-01-04 15:24:00,36.5,28.0,29.89,WNW,292,7.7,19.6,69,0.00,,,0.00,Rainwise IP-100,2013-01-04 20:24:00,
2013-01-04 15:29:00,36.5,28.0,29.89,WNW,292,8.9,22.9,68,0.00,,,0.00,Rainwise IP-100,2013-01-04 20:29:00,
2013-01-04 15:34:00,36.5,28.0,29.89,WNW,292,17.7,21.2,68,0.00,,,0.00,Rainwise IP-100,2013-01-04 20:34:00,
2013-01-04 15:39:00,36.5,28.0,29.89,SSE,157,5.6,22.2,67,0.00,,,0.00,Rainwise IP-100,2013-01-04 20:39:00,
2013-01-04 15:44:00,36.5,28.0,29.88,WSW,247,14.7,22.4,67,0.00,,,0.00,Rainwise IP-100,2013-01-04 20:44:00,
2013-01-04 15:49:00,36.5,28.0,29.88,West,270,12.6,21.5,67,0.00,,,0.00,Rainwise IP-100,2013-01-04 20:49:00,
2013-01-04 15:54:00,36.4,26.0,29.89,WNW,292,9.6,24.2,67,0.00,,,0.00,Rainwise IP-100,2013-01-04 20:54:00,
2013-01-04 15:59:00,36.4,26.0,29.88,WNW,292,4.4,24.9,66,0.00,,,0.00,Rainwise IP-100,2013-01-04 20:59:00,
2013-01-04 16:04:00,36.3,26.0,29.88,WNW,292,14.0,21.5,66,0.00,,,0.00,Rainwise IP-100,2013-01-04 21:04:00,
2013-01-04 16:09:00,36.2,26.0,29.88,WNW,292,7.9,21.5,67,0.00,,,0.00,Rainwise IP-100,2013-01-04 21:09:00,
2013-01-04 16:14:00,36.1,26.0,29.89,NW,315,9.8,16.1,67,0.00,,,0.00,Rainwise IP-100,2013-01-04 21:14:00,
2013-01-04 16:19:00,36.1,26.0,29.88,West,270,5.6,19.4,67,0.00,,,0.00,Rainwise IP-100,2013-01-04 21:19:00,
2013-01-04 16:25:00,36.0,26.0,29.88,West,270,14.9,17.5,68,0.00,,,0.00,Rainwise IP-100,2013-01-04 21:25:00,
2013-01-04 16:30:00,36.1,26.0,29.88,West,270,13.8,19.4,68,0.00,,,0.00,Rainwise IP-100,2013-01-04 21:30:00,
2013-01-04 16:35:00,36.1,26.0,29.88,WNW,292,10.0,19.8,68,0.00,,,0.00,Rainwise IP-100,2013-01-04 21:35:00,
2013-01-04 16:40:00,36.1,26.0,29.88,WNW,292,9.8,17.3,68,0.00,,,0.00,Rainwise IP-100,2013-01-04 21:40:00,
2013-01-04 16:45:00,36.1,26.0,29.88,West,270,15.6,17.7,68,0.00,,,0.00,Rainwise IP-100,2013-01-04 21:45:00,
2013-01-04 16:50:00,36.1,26.0,29.88,SW,225,8.9,18.9,69,0.00,,,0.00,Rainwise IP-100,2013-01-04 21:50:00,
2013-01-04 16:55:00,36.0,26.0,29.89,WNW,292,10.7,18.2,69,0.00,,,0.00,Rainwise IP-100,2013-01-04 21:55:00,
2013-01-04 17:00:00,36.1,26.0,29.88,West,270,8.4,23.8,69,0.00,,,0.00,Rainwise IP-100,2013-01-04 22:00:00,
2013-01-04 17:05:00,36.1,26.0,29.88,WSW,247,10.0,16.8,69,0.00,,,0.00,Rainwise IP-100,2013-01-04 22:05:00,
2013-01-04 17:10:00,36.1,26.0,29.88,WNW,292,10.5,18.4,69,0.00,,,0.00,Rainwise IP-100,2013-01-04 22:10:00,
2013-01-04 17:15:00,36.2,26.0,29.88,WNW,292,11.4,17.5,69,0.00,,,0.00,Rainwise IP-100,2013-01-04 22:15:00,
2013-01-04 17:20:00,36.3,26.0,29.88,WSW,247,8.9,18.0,69,0.00,,,0.00,Rainwise IP-100,2013-01-04 22:20:00,
2013-01-04 17:25:00,36.3,26.0,29.89,WNW,292,11.2,21.5,69,0.00,,,0.00,Rainwise IP-100,2013-01-04 22:25:00,
2013-01-04 17:30:00,36.3,26.0,29.88,WSW,247,13.3,19.1,69,0.00,,,0.00,Rainwise IP-100,2013-01-04 22:30:00,
2013-01-04 17:35:00,36.3,26.0,29.88,West,270,12.1,23.3,69,0.00,,,0.00,Rainwise IP-100,2013-01-04 22:35:00,
2013-01-04 17:40:00,36.3,28.0,29.89,NNW,337,10.5,17.3,70,0.00,,,0.00,Rainwise IP-100,2013-01-04 22:40:00,
2013-01-04 17:45:00,36.2,28.0,29.89,WNW,292,9.8,14.0,70,0.00,,,0.00,Rainwise IP-100,2013-01-04 22:45:00,
2013-01-04 17:50:00,36.1,28.0,29.89,WNW,292,13.3,18.7,71,0.00,,,0.00,Rainwise IP-100,2013-01-04 22:50:00,
2013-01-04 17:55:00,36.2,28.0,29.89,WSW,247,12.6,21.0,71,0.00,,,0.00,Rainwise IP-100,2013-01-04 22:55:00,
2013-01-04 18:00:00,36.2,28.0,29.90,NW,315,9.3,18.2,71,0.00,,,0.00,Rainwise IP-100,2013-01-04 23:00:00,
2013-01-04 18:05:00,36.2,28.0,29.90,WNW,292,19.4,19.4,71,0.00,,,0.00,Rainwise IP-100,2013-01-04 23:05:00,
2013-01-04 18:10:00,36.1,28.0,29.90,WNW,292,6.5,19.4,71,0.00,,,0.00,Rainwise IP-100,2013-01-04 23:10:00,
2013-01-04 18:15:00,36.0,28.0,29.90,West,270,9.8,14.9,71,0.00,,,0.00,Rainwise IP-100,2013-01-04 23:15:00,
2013-01-04 18:20:00,35.9,28.0,29.90,WNW,292,8.9,14.7,71,0.00,,,0.00,Rainwise IP-100,2013-01-04 23:20:00,
2013-01-04 18:25:00,35.8,28.0,29.90,WNW,292,7.0,17.3,71,0.00,,,0.00,Rainwise IP-100,2013-01-04 23:25:00,
2013-01-04 18:30:00,35.8,28.0,29.90,West,270,9.6,13.5,71,0.00,,,0.00,Rainwise IP-100,2013-01-04 23:30:00,
2013-01-04 18:35:00,35.8,28.0,29.90,WNW,292,8.6,14.5,70,0.00,,,0.00,Rainwise IP-100,2013-01-04 23:35:00,
2013-01-04 18:40:00,35.7,28.0,29.90,WNW,292,8.2,13.8,70,0.00,,,0.00,Rainwise IP-100,2013-01-04 23:40:00,
2013-01-04 18:45:00,35.6,28.0,29.90,WNW,292,4.2,13.8,70,0.00,,,0.00,Rainwise IP-100,2013-01-04 23:45:00,
2013-01-04 18:50:00,35.6,28.0,29.90,WNW,292,8.6,14.0,71,0.00,,,0.00,Rainwise IP-100,2013-01-04 23:50:00,
2013-01-04 18:55:00,35.7,28.0,29.89,WNW,292,17.0,18.4,70,0.00,,,0.00,Rainwise IP-100,2013-01-04 23:55:00,
2013-01-04 19:00:00,35.8,26.0,29.90,WNW,292,12.1,18.9,69,0.00,,,0.00,Rainwise IP-100,2013-01-05 00:00:00,
2013-01-04 19:05:00,35.9,26.0,29.90,WNW,292,9.1,17.0,69,0.00,,,0.00,Rainwise IP-100,2013-01-05 00:05:00,
2013-01-04 19:10:00,35.8,26.0,29.90,WNW,292,8.6,14.9,69,0.00,,,0.00,Rainwise IP-100,2013-01-05 00:10:00,
2013-01-04 19:15:00,35.8,26.0,29.90,NNW,337,6.8,18.4,69,0.00,,,0.00,Rainwise IP-100,2013-01-05 00:15:00,
2013-01-04 19:20:00,35.8,26.0,29.90,WNW,292,10.3,15.9,68,0.00,,,0.00,Rainwise IP-100,2013-01-05 00:20:00,
2013-01-04 19:25:00,35.8,26.0,29.91,West,270,4.7,15.6,68,0.00,,,0.00,Rainwise IP-100,2013-01-05 00:25:00,
2013-01-04 19:30:00,35.8,26.0,29.91,WSW,247,7.2,17.7,69,0.00,,,0.00,Rainwise IP-100,2013-01-05 00:30:00,
2013-01-04 19:35:00,35.9,26.0,29.92,WNW,292,9.6,14.9,69,0.00,,,0.00,Rainwise IP-100,2013-01-05 00:35:00,
2013-01-04 19:40:00,35.9,26.0,29.91,WNW,292,7.0,17.7,69,0.00,,,0.00,Rainwise IP-100,2013-01-05 00:40:00,
2013-01-04 19:45:00,35.9,26.0,29.92,WNW,292,7.2,15.4,69,0.00,,,0.00,Rainwise IP-100,2013-01-05 00:45:00,
2013-01-04 19:50:00,35.9,26.0,29.91,WNW,292,8.9,12.4,68,0.00,,,0.00,Rainwise IP-100,2013-01-05 00:50:00,
2013-01-04 19:55:00,36.0,26.0,29.91,WNW,292,7.0,17.3,68,0.00,,,0.00,Rainwise IP-100,2013-01-05 00:55:00,
2013-01-04 20:00:00,36.0,26.0,29.91,WNW,292,6.3,16.1,67,0.00,,,0.00,Rainwise IP-100,2013-01-05 01:00:00,
2013-01-04 20:05:00,36.1,26.0,29.91,WNW,292,10.5,18.7,67,0.00,,,0.00,Rainwise IP-100,2013-01-05 01:05:00,
2013-01-04 20:10:00,36.2,26.0,29.92,WNW,292,11.7,20.5,66,0.00,,,0.00,Rainwise IP-100,2013-01-05 01:10:00,
2013-01-04 20:15:00,36.3,26.0,29.92,WNW,292,9.1,17.3,65,0.00,,,0.00,Rainwise IP-100,2013-01-05 01:15:00,
2013-01-04 20:20:00,36.4,24.0,29.91,WSW,247,7.5,20.3,64,0.00,,,0.00,Rainwise IP-100,2013-01-05 01:20:00,
2013-01-04 20:25:00,36.4,24.0,29.91,WNW,292,6.1,17.5,63,0.00,,,0.00,Rainwise IP-100,2013-01-05 01:25:00,
2013-01-04 20:30:00,36.4,24.0,29.91,WSW,247,8.6,18.0,63,0.00,,,0.00,Rainwise IP-100,2013-01-05 01:30:00,
2013-01-04 20:35:00,36.3,24.0,29.91,WNW,292,7.0,15.4,62,0.00,,,0.00,Rainwise IP-100,2013-01-05 01:35:00,
2013-01-04 20:40:00,36.2,24.0,29.91,WNW,292,7.7,16.6,62,0.00,,,0.00,Rainwise IP-100,2013-01-05 01:40:00,
2013-01-04 20:45:00,36.0,24.0,29.91,ENE,67,2.8,15.4,62,0.00,,,0.00,Rainwise IP-100,2013-01-05 01:45:00,
2013-01-04 20:50:00,35.9,24.0,29.90,WNW,292,13.1,20.1,62,0.00,,,0.00,Rainwise IP-100,2013-01-05 01:50:00,
2013-01-04 20:55:00,35.9,24.0,29.91,WNW,292,10.7,17.3,62,0.00,,,0.00,Rainwise IP-100,2013-01-05 01:55:00,
2013-01-04 21:00:00,35.8,24.0,29.90,NNW,337,9.8,14.5,62,0.00,,,0.00,Rainwise IP-100,2013-01-05 02:00:00,
2013-01-04 21:05:00,35.7,24.0,29.90,WNW,292,4.0,13.8,62,0.00,,,0.00,Rainwise IP-100,2013-01-05 02:05:00,
2013-01-04 21:10:00,35.7,24.0,29.90,WNW,292,7.9,16.8,62,0.00,,,0.00,Rainwise IP-100,2013-01-05 02:10:00,
2013-01-04 21:15:00,35.7,24.0,29.90,NNW,337,2.3,18.2,61,0.00,,,0.00,Rainwise IP-100,2013-01-05 02:15:00,
2013-01-04 21:20:00,35.6,24.0,29.90,West,270,5.4,12.1,62,0.00,,,0.00,Rainwise IP-100,2013-01-05 02:20:00,
2013-01-04 21:25:00,35.5,24.0,29.90,WNW,292,8.2,14.0,62,0.00,,,0.00,Rainwise IP-100,2013-01-05 02:25:00,
2013-01-04 21:30:00,35.5,24.0,29.90,WNW,292,11.7,19.4,62,0.00,,,0.00,Rainwise IP-100,2013-01-05 02:30:00,
2013-01-04 21:35:00,35.4,23.0,29.90,WNW,292,11.2,13.3,62,0.00,,,0.00,Rainwise IP-100,2013-01-05 02:35:00,
2013-01-04 21:40:00,35.2,23.0,29.91,WNW,292,15.9,15.9,62,0.00,,,0.00,Rainwise IP-100,2013-01-05 02:40:00,
2013-01-04 21:45:00,35.1,24.0,29.90,WNW,292,6.1,20.3,63,0.00,,,0.00,Rainwise IP-100,2013-01-05 02:45:00,
2013-01-04 21:50:00,35.2,24.0,29.90,WNW,292,3.0,16.6,63,0.00,,,0.00,Rainwise IP-100,2013-01-05 02:50:00,
2013-01-04 21:55:00,35.1,24.0,29.90,WNW,292,7.2,17.7,63,0.00,,,0.00,Rainwise IP-100,2013-01-05 02:55:00,
2013-01-04 22:00:00,35.1,23.0,29.90,WNW,292,8.2,15.4,62,0.00,,,0.00,Rainwise IP-100,2013-01-05 03:00:00,
2013-01-04 22:05:00,35.1,23.0,29.90,WNW,292,4.4,17.0,62,0.00,,,0.00,Rainwise IP-100,2013-01-05 03:05:00,
2013-01-04 22:10:00,35.1,23.0,29.90,WNW,292,11.2,16.6,62,0.00,,,0.00,Rainwise IP-100,2013-01-05 03:10:00,
2013-01-04 22:15:00,35.0,23.0,29.90,WNW,292,8.6,16.6,62,0.00,,,0.00,Rainwise IP-100,2013-01-05 03:15:00,
2013-01-04 22:20:00,34.9,23.0,29.91,WNW,292,11.7,17.0,62,0.00,,,0.00,Rainwise IP-100,2013-01-05 03:20:00,
2013-01-04 22:25:00,34.9,23.0,29.91,WNW,292,8.4,17.3,62,0.00,,,0.00,Rainwise IP-100,2013-01-05 03:25:00,
2013-01-04 22:30:00,34.7,23.0,29.91,WNW,292,3.5,12.4,62,0.00,,,0.00,Rainwise IP-100,2013-01-05 03:30:00,
2013-01-04 22:35:00,34.6,23.0,29.91,WNW,292,7.9,12.6,62,0.00,,,0.00,Rainwise IP-100,2013-01-05 03:35:00,
2013-01-04 22:40:00,34.6,23.0,29.91,WNW,292,7.0,13.5,62,0.00,,,0.00,Rainwise IP-100,2013-01-05 03:40:00,
2013-01-04 22:45:00,34.5,23.0,29.91,WNW,292,6.8,14.2,62,0.00,,,0.00,Rainwise IP-100,2013-01-05 03:45:00,
2013-01-04 22:50:00,34.4,23.0,29.91,WNW,292,8.2,13.1,62,0.00,,,0.00,Rainwise IP-100,2013-01-05 03:50:00,
2013-01-04 22:55:00,34.3,23.0,29.91,NNW,337,4.7,14.2,62,0.00,,,0.00,Rainwise IP-100,2013-01-05 03:55:00,
2013-01-04 23:00:00,34.2,23.0,29.91,NE,45,1.4,13.3,62,0.00,,,0.00,Rainwise IP-100,2013-01-05 04:00:00,
2013-01-04 23:05:00,34.1,23.0,29.91,WNW,292,8.9,13.8,62,0.00,,,0.00,Rainwise IP-100,2013-01-05 04:05:00,
2013-01-04 23:10:00,34.0,23.0,29.91,WNW,292,5.1,12.6,62,0.00,,,0.00,Rainwise IP-100,2013-01-05 04:10:00,
2013-01-04 23:15:00,33.9,23.0,29.91,WNW,292,7.0,11.4,62,0.00,,,0.00,Rainwise IP-100,2013-01-05 04:15:00,
2013-01-04 23:20:00,33.9,23.0,29.91,WNW,292,4.0,11.0,62,0.00,,,0.00,Rainwise IP-100,2013-01-05 04:20:00,
2013-01-04 23:25:00,33.8,23.0,29.91,WNW,292,4.0,13.3,62,0.00,,,0.00,Rainwise IP-100,2013-01-05 04:25:00,
2013-01-04 23:30:00,33.8,23.0,29.91,WNW,292,9.3,12.8,62,0.00,,,0.00,Rainwise IP-100,2013-01-05 04:30:00,
2013-01-04 23:35:00,33.7,24.0,29.91,NNW,337,4.7,12.4,63,0.00,,,0.00,Rainwise IP-100,2013-01-05 04:35:00,
2013-01-04 23:40:00,33.7,24.0,29.91,WNW,292,7.2,11.7,63,0.00,,,0.00,Rainwise IP-100,2013-01-05 04:40:00,
2013-01-04 23:45:00,33.7,24.0,29.91,West,270,4.0,11.7,63,0.00,,,0.00,Rainwise IP-100,2013-01-05 04:45:00,
2013-01-04 23:50:00,33.8,23.0,29.91,WSW,247,10.0,12.4,62,0.00,,,0.00,Rainwise IP-100,2013-01-05 04:50:00,
2013-01-04 23:55:00,33.8,23.0,29.91,WNW,292,10.7,13.8,62,0.00,,,0.00,Rainwise IP-100,2013-01-05 04:55:00,